Satellite: NOAA-11 Catalog number: 19531 Epoch time: 13178.27450666 Element set: 412 Inclination: 098.7106 deg RA of node: 261.0701 deg Eccentricity: 0.0010618 Arg of perigee: 227.9192 deg Mean anomaly: 164.7431 deg Mean motion: 14.15019446 rev/day Decay rate: 1.6e-07 rev/day^2 Epoch rev: 27755 Checksum: 285
Satellite: NOAA-12 Catalog number: 21263 Epoch time: 13178.28837764 Element set: 876 Inclination: 098.6968 deg RA of node: 203.5946 deg Eccentricity: 0.0014023 Arg of perigee: 185.8051 deg Mean anomaly: 234.6455 deg Mean motion: 14.25572721 rev/day Decay rate: 3.8e-07 rev/day^2 Epoch rev: 14999 Checksum: 335
Satellite: MET-3/5 Catalog number: 21655 Epoch time: 13178.42961790 Element set: 723 Inclination: 082.5557 deg RA of node: 247.0568 deg Eccentricity: 0.0014664 Arg of perigee: 104.7451 deg Mean anomaly: 255.5298 deg Mean motion: 13.17048616 rev/day Decay rate: -4.0e-07 rev/day^2 Epoch rev: 5128 Checksum: 309
Satellite: MET-2/21 Catalog number: 22782 Epoch time: 13178.82363285 Element set: 774 Inclination: 082.5503 deg RA of node: 094.4855 deg Eccentricity: 0.0022689 Arg of perigee: 175.9279 deg Mean anomaly: 243.6940 deg Mean motion: 13.83710032 rev/day Decay rate: 3.0e-07 rev/day^2 Epoch rev: 111 Checksum: 299
Satellite: OKEAN-4 Catalog number: 23317 Epoch time: 13178.44606365 Element set: 254 Inclination: 082.5384 deg RA of node: 040.1940 deg Eccentricity: 0.0021213 Arg of perigee: 188.1826 deg Mean anomaly: 264.8732 deg Mean motion: 14.84508074 rev/day Decay rate: 6.13e-06 rev/day^2 Epoch rev: 1046 Checksum: 280
Satellite: NOAA-14 Catalog number: 23455 Epoch time: 13178.32929441 Element set: 361 Inclination: 098.8027 deg RA of node: 262.6149 deg Eccentricity: 0.0008697 Arg of perigee: 334.3840 deg Mean anomaly: 067.0407 deg Mean motion: 14.13912213 rev/day Decay rate: -7.8e-07 rev/day^2 Epoch rev: 95380 Checksum: 310
Satellite: NOAA-15 Catalog number: 25338 Epoch time: 13178.48565034 Element set: 781 Inclination: 098.7246 deg RA of node: 168.6344 deg Eccentricity: 0.0011928 Arg of perigee: 098.8838 deg Mean anomaly: 053.7239 deg Mean motion: 14.25235010 rev/day Decay rate: 1.41e-06 rev/day^2 Epoch rev: 78631 Checksum: 324
Satellite: RESURS Catalog number: 25394 Epoch time: 13178.82666410 Element set: 407 Inclination: 098.3618 deg RA of node: 154.1559 deg Eccentricity: 0.0001388 Arg of perigee: 164.3225 deg Mean anomaly: 255.0235 deg Mean motion: 14.24332738 rev/day Decay rate: -2.6e-07 rev/day^2 Epoch rev: 77787 Checksum: 309
Satellite: FENGYUN1 Catalog number: 25730 Epoch time: 13178.54573712 Element set: 903 Inclination: 098.8772 deg RA of node: 137.9298 deg Eccentricity: 0.0026371 Arg of perigee: 022.1263 deg Mean anomaly: 095.3461 deg Mean motion: 14.10559242 rev/day Decay rate: 3.32e-06 rev/day^2 Epoch rev: 72750 Checksum: 298
Satellite: OKEAN-0 Catalog number: 25860 Epoch time: 13178.50404453 Element set: 980 Inclination: 097.9904 deg RA of node: 140.8154 deg Eccentricity: 0.0002171 Arg of perigee: 108.1122 deg Mean anomaly: 003.2430 deg Mean motion: 14.74626501 rev/day Decay rate: 2.88e-06 rev/day^2 Epoch rev: 74987 Checksum: 281
Satellite: NOAA-16 Catalog number: 26536 Epoch time: 13178.24792622 Element set: 260 Inclination: 099.0422 deg RA of node: 231.1138 deg Eccentricity: 0.0011640 Arg of perigee: 107.8886 deg Mean anomaly: 291.7152 deg Mean motion: 14.12889948 rev/day Decay rate: 6.2e-07 rev/day^2 Epoch rev: 65799 Checksum: 322
Satellite: NOAA-17 Catalog number: 27453 Epoch time: 13178.48190106 Element set: 177 Inclination: 098.3123 deg RA of node: 192.0176 deg Eccentricity: 0.0012862 Arg of perigee: 132.7874 deg Mean anomaly: 024.9855 deg Mean motion: 14.24599029 rev/day Decay rate: 7.2e-07 rev/day^2 Epoch rev: 57218 Checksum: 317
Satellite: NOAA-18 Catalog number: 28654 Epoch time: 13178.50343316 Element set: 664 Inclination: 099.0997 deg RA of node: 146.8686 deg Eccentricity: 0.0014520 Arg of perigee: 175.6269 deg Mean anomaly: 291.1618 deg Mean motion: 14.11832839 rev/day Decay rate: -2.0e-08 rev/day^2 Epoch rev: 41751 Checksum: 326
Satellite: NOAA-19 Catalog number: 33591 Epoch time: 13178.46004411 Element set: 847 Inclination: 098.9031 deg RA of node: 120.4440 deg Eccentricity: 0.0014829 Arg of perigee: 044.9844 deg Mean anomaly: 092.6968 deg Mean motion: 14.11518447 rev/day Decay rate: 1.42e-06 rev/day^2 Epoch rev: 22594 Checksum: 307
/EX SB KEPS @ AMSAT $ORB13178.M Orbital Elements 13178.MISC
HR AMSAT ORBITAL ELEMENTS FOR MANNED AND MISCELLANEOUS SATELLITES FROM WA5QGD FORT WORTH,TX June 27, 2013 BID: ORB13178.M TO ALL RADIO AMATEURS BT
Satellite: HUBBLE Catalog number: 20580 Epoch time: 13178.14488461 Element set: 269 Inclination: 028.4688 deg RA of node: 207.5478 deg Eccentricity: 0.0003348 Arg of perigee: 092.3113 deg Mean anomaly: 309.9967 deg Mean motion: 15.03717898 rev/day Decay rate: 1.121e-05 rev/day^2 Epoch rev: 7119 Checksum: 317
Satellite: ISS Catalog number: 25544 Epoch time: 13178.90545139 Element set: 77 Inclination: 051.6510 deg RA of node: 055.2095 deg Eccentricity: 0.0009047 Arg of perigee: 104.1018 deg Mean anomaly: 077.9382 deg Mean motion: 15.50461566 rev/day Decay rate: 1.1628e-04 rev/day^2 Epoch rev: 83636 Checksum: 295
Satellite: CO-58 Catalog number: 28895 Epoch time: 13178.14838201 Element set: 508 Inclination: 097.8697 deg RA of node: 032.9849 deg Eccentricity: 0.0018605 Arg of perigee: 054.3923 deg Mean anomaly: 305.9009 deg Mean motion: 14.61143563 rev/day Decay rate: 4.20e-06 rev/day^2 Epoch rev: 40839 Checksum: 332
Satellite: FALCON Catalog number: 30776 Epoch time: 13172.35907185 Element set: 638 Inclination: 035.4301 deg RA of node: 176.6150 deg Eccentricity: 0.0001827 Arg of perigee: 309.8416 deg Mean anomaly: 050.2640 deg Mean motion: 15.10721247 rev/day Decay rate: 3.480e-05 rev/day^2 Epoch rev: 34605 Checksum: 271
Satellite: MAST Catalog number: 31126 Epoch time: 13178.04595935 Element set: 787 Inclination: 097.8815 deg RA of node: 173.4042 deg Eccentricity: 0.0093472 Arg of perigee: 022.9448 deg Mean anomaly: 008.7667 deg Mean motion: 14.54598020 rev/day Decay rate: 5.07e-06 rev/day^2 Epoch rev: 32875 Checksum: 326
Satellite: CAPE1 Catalog number: 31130 Epoch time: 13171.97032159 Element set: 790 Inclination: 097.8980 deg RA of node: 164.0291 deg Eccentricity: 0.0101692 Arg of perigee: 057.2705 deg Mean anomaly: 303.8246 deg Mean motion: 14.53507858 rev/day Decay rate: 7.45e-06 rev/day^2 Epoch rev: 32732 Checksum: 297
Satellite: COMPASS Catalog number: 32787 Epoch time: 13178.17330438 Element set: 659 Inclination: 097.7516 deg RA of node: 236.4780 deg Eccentricity: 0.0013130 Arg of perigee: 269.4567 deg Mean anomaly: 090.5144 deg Mean motion: 14.85571405 rev/day Decay rate: 1.492e-05 rev/day^2 Epoch rev: 27944 Checksum: 321
Satellite: AAUSAT2 Catalog number: 32788 Epoch time: 13178.71749618 Element set: 645 Inclination: 097.7525 deg RA of node: 237.6452 deg Eccentricity: 0.0012698 Arg of perigee: 266.7355 deg Mean anomaly: 093.2408 deg Mean motion: 14.86041704 rev/day Decay rate: 1.287e-05 rev/day^2 Epoch rev: 27956 Checksum: 348
Satellite: DO-64 Catalog number: 32789 Epoch time: 13178.25770325 Element set: 673 Inclination: 097.7677 deg RA of node: 241.0301 deg Eccentricity: 0.0012121 Arg of perigee: 259.8006 deg Mean anomaly: 144.2357 deg Mean motion: 14.88694333 rev/day Decay rate: 3.944e-05 rev/day^2 Epoch rev: 27962 Checksum: 327
Satellite: CO-66 Catalog number: 32791 Epoch time: 13172.15551588 Element set: 638 Inclination: 097.7524 deg RA of node: 229.9747 deg Eccentricity: 0.0013561 Arg of perigee: 292.5237 deg Mean anomaly: 123.4789 deg Mean motion: 14.84679213 rev/day Decay rate: 1.298e-05 rev/day^2 Epoch rev: 27846 Checksum: 358
Satellite: RS-30 Catalog number: 32953 Epoch time: 13178.76545552 Element set: 978 Inclination: 082.5056 deg RA of node: 061.6190 deg Eccentricity: 0.0017419 Arg of perigee: 207.6456 deg Mean anomaly: 152.3698 deg Mean motion: 12.43034547 rev/day Decay rate: 1.0e-07 rev/day^2 Epoch rev: 23122 Checksum: 298
Satellite: METEOR-M Catalog number: 35865 Epoch time: 13178.78120747 Element set: 572 Inclination: 098.6017 deg RA of node: 230.9447 deg Eccentricity: 0.0003289 Arg of perigee: 050.9119 deg Mean anomaly: 309.2348 deg Mean motion: 14.21888762 rev/day Decay rate: -5.0e-08 rev/day^2 Epoch rev: 19597 Checksum: 329
Satellite: RS-38 Catalog number: 35869 Epoch time: 13178.74233000 Element set: 531 Inclination: 098.5954 deg RA of node: 230.8189 deg Eccentricity: 0.0005538 Arg of perigee: 046.8239 deg Mean anomaly: 313.3408 deg Mean motion: 14.22134314 rev/day Decay rate: 4.3e-07 rev/day^2 Epoch rev: 19599 Checksum: 312
Satellite: JUGNU Catalog number: 37839 Epoch time: 13177.49543795 Element set: 413 Inclination: 019.9602 deg RA of node: 250.3868 deg Eccentricity: 0.0019317 Arg of perigee: 026.1270 deg Mean anomaly: 089.8129 deg Mean motion: 14.12163284 rev/day Decay rate: 3.45e-06 rev/day^2 Epoch rev: 8821 Checksum: 310
Satellite: SRMSAT Catalog number: 37841 Epoch time: 13177.49284749 Element set: 415 Inclination: 019.9710 deg RA of node: 262.6427 deg Eccentricity: 0.0012057 Arg of perigee: 339.8260 deg Mean anomaly: 122.6593 deg Mean motion: 14.10231862 rev/day Decay rate: 3.26e-06 rev/day^2 Epoch rev: 8808 Checksum: 301
Satellite: RAX-2 Catalog number: 37853 Epoch time: 13172.48608235 Element set: 531 Inclination: 101.7126 deg RA of node: 028.1137 deg Eccentricity: 0.0234994 Arg of perigee: 015.2483 deg Mean anomaly: 045.4470 deg Mean motion: 14.83724074 rev/day Decay rate: 4.802e-05 rev/day^2 Epoch rev: 8908 Checksum: 293
